Location: Kawakawa
(35.3830°S, 174.0670°E)
Time: 18:16:52
(UTC+13:00)

Altair - Pass Details

Date: 06 December 2019
Orbit: 1502 x 1682 km, 47.2° (Epoch: 23 January)

Event Time Altitude Azimuth Distance (km) Brightness Sun altitude
Rises 15:00:41 0° 251° (WSW) 4,899 10.4 63.5°
Reaches altitude 10° 15:04:06 10° 244° (WSW) 3,931 10.1 62.9°
Maximum altitude 15:13:38 43° 174° (S) 2,236 8.8 61.0°
Drops below altitude 10° 15:23:14 10° 104° (ESE) 3,952 9.5 59.2°
Sets 15:26:40 0° 97° (E) 4,927 9.8 58.5°
